Location: Lango�lan
(48.1202°N, 3.2340°W)
Time: 22:38:57
(UTC+00:00)

Cosmos 1943 Rocket - Pass Details

Date: 23 October 2019
Orbit: 810 x 845 km, 71.0° (Epoch: 17 November)

Event Time Altitude Azimuth Distance (km) Brightness Sun altitude
Exits shadow 04:24:13 - 335° (NNW) 3,366 5.2 -23.9°
Reaches altitude 10° 04:26:43 10° 343° (NNW) 2,474 4.5 -23.5°
Maximum altitude 04:32:03 40° 53° (NE) 1,225 3.4 -22.6°
Drops below altitude 10° 04:37:22 10° 122° (ESE) 2,465 5.3 -21.7°
Sets 04:39:58 0° 130° (SE) 3,394 6.0 -21.3°
